This is the latest recevied weather packets stored in our database for station/object F4ETJ-1. If no packets are shown the sender has not sent any weather packets the latest 10 day(s).
| Time | Temp. | Humidity | Pressure | Rain* | Wind** | Luminosity | Snow |
|---|---|---|---|---|---|---|---|
| 1787917272 | 22.78° C | 64% | 1013.8 hPa | 0 mm | - | - | - |
| 1787916912 | 22.78° C | 66% | 1013.7 hPa | 0 mm | - | - | - |
| 1787916552 | 22.22° C | 66% | 1013.7 hPa | 0 mm | - | - | - |
| 1787916191 | 22.22° C | 68% | 1013.7 hPa | 0 mm | - | - | - |
| 1787915831 | 22.22° C | 66% | 1013.8 hPa | 0 mm | - | - | - |
| 1787915471 | 22.22° C | 68% | 1013.7 hPa | 0 mm | - | - | - |
| 1787915110 | 21.67° C | 69% | 1013.6 hPa | 0 mm | - | - | - |
| 1787914750 | 20.56° C | 73% | 1013.7 hPa | 0 mm | - | - | - |
| 1787914390 | 20.56° C | 77% | 1013.6 hPa | 0 mm | - | - | - |
| 1787914029 | 20.56° C | 77% | 1013.5 hPa | 0 mm | - | - | - |
| 1787913669 | 21.11° C | 74% | 1013.3 hPa | 0 mm | - | - | - |
| 1787913309 | 21.11° C | 73% | 1013.4 hPa | 0 mm | - | - | - |
| 1787912948 | 21.67° C | 70% | 1013.4 hPa | 0 mm | - | - | - |
| 1787912588 | 21.67° C | 70% | 1013.2 hPa | 0 mm | - | - | - |
| 1787912588 | 21.67° C | 70% | 1013.2 hPa | 0 mm | - | - | - |
| 1787912228 | 21.67° C | 68% | 1013.1 hPa | 0 mm | - | - | - |
| 1787911867 | 22.22° C | 70% | 1013.1 hPa | 0 mm | - | - | - |
| 1787911507 | 21.67° C | 70% | 1013.1 hPa | 0 mm | - | - | - |
| 1787911148 | 21.67° C | 70% | 1013 hPa | 0 mm | - | - | - |
| 1787911147 | 21.67° C | 70% | 1013 hPa | 0 mm | - | - | - |
| 1787910786 | 21.11° C | 73% | 1012.8 hPa | 0 mm | - | - | - |
| 1787910426 | 21.11° C | 72% | 1012.8 hPa | 0 mm | - | - | - |
| 1787910066 | 20.56° C | 73% | 1012.8 hPa | 0 mm | - | - | - |
| 1787909705 | 21.11° C | 74% | 1012.6 hPa | 0 mm | - | - | - |
| 1787909346 | 20.56° C | - | - | 0 mm | - | - | - |
* Rain latest hour (hover to see other rain measurements)
** Current wind speed in m/s (hover to see current wind gust speed)